Back to catalog

STARLINK-3574

AliveCommunicationsVLEO
NORAD 51874·PAYLOAD·🇺🇸 United States

Launched Mar 3, 2022 from Cape Canaveral Space Force Station

Loading…

Next Passes (next 24 hours)

TLE

FreshSource: CelesTrak SupGP

Epoch: Sep 14, 2026, 20:58 UTC

1 51874C 22022Y   26257.87409722  .00033343  00000+0  95390-3 0  2575
2 51874  53.1576 229.8870 0001331  95.1136  97.0601 15.35383867    16

Track STARLINK-3574 in real time with AllMySat

Download on the App Store